Regional Weather Roundup
Issued by NWS New Orleans/Baton Rouge, LA

Home | Current Version | Previous Version | Text Only | Print | Product List | Glossary On
Versions: 1 2 3 4 5 6 7 8 9 10 11 12 13 14 15 16 17 18 19 20 21 22 23 24 25 26 27 28 29 30 31 32 33 34 35 36 37 38 39 40 41 42 43 44 45 46 47 48 49 50
000
ASUS44 KLIX 210513
RWRLIX
NEW ORLEANS REGIONAL WEATHER ROUNDUP
NATIONAL WEATHER SERVICE NEW ORLEANS LA
1100 PM CST MON FEB 20 2017

NOTE: "FAIR" INDICATES FEW OR NO CLOUDS BELOW 12,000 FEET WITH NO
      SIGNIFICANT WEATHER AND/OR OBSTRUCTIONS TO VISIBILITY.
      SKY/WX - SKY CONDITION AND SIGNIFICANT WEATHER.
      TMP - AIR TEMPERATURE.     DP    - DEWPOINT TEMPERATURE.
      RH  - RELATIVE HUMIDITY.   PRES  - PRESSURE.
      HI  - HEAT INDEX.          WCI   - WIND CHILL INDEX.

*  THESE STATIONS ARE NOT NWS OR FAA STATIONS AND ARE NOT UNDER
   NWS QUALITY CONTROL.

LAZ038-040-048-061>063-065>067-069-210600-
SOUTHEAST LOUISIANA

CITY           SKY/WX    TMP DP  RH WIND       PRES   REMARKS
N.O. AUDUBON   NOT AVBL
N.O. INTL ARPT RAIN      61  60  97 W20G25    30.00R FOG
N.O. LAKEFRONT RAIN      63  61  93 W36G44    29.98R FOG
N.O. DOWNTOWN* LGT RAIN  64  60  87 NW14G21   30.01R
RESERVE*       DRIZZLE   63  61  94 NW8G18    30.00F
SLIDELL        CLOUDY    71  67  87 SE16G25   29.93F
BATON ROUGE    LGT RAIN  61  59  93 NW7       30.00F
BOOTHVILLE     CLOUDY    70  69  97 SE10      29.97F
BELLE CHASSE   CLOUDY    72  70  93 W14G20    29.98R
BOGALUSA*      CLOUDY    70  65  82 SE12G26   29.95F
GALLIANO*      LGT RAIN  62  58  86 NW23G29   29.99R
NEW ROADS*     LGT RAIN  59  58  97 N5        30.00F
GONZALES*      RAIN      60  59  96 NW5       30.01S
HAMMOND*       LGT RAIN  61  57  88 NW10      30.00R
HOUMA*         CLOUDY    61  59  94 NW13G22   30.01R
PORT FOURCHON* CLOUDY    64  61  88 NW26G37   30.00R

$$

MSZ070-080>082-210600-
SOUTHERN MISSISSIPPI

CITY           SKY/WX    TMP DP  RH WIND       PRES   REMARKS
MCCOMB         RAIN      60  57  89 NW16G24   29.96F FOG
GULFPORT       CLOUDY    69  67  93 SE17      29.97S
BILOXI         CLOUDY    68  66  94 SE10      29.97F
PASCAGOULA     CLOUDY    69  64  84 SE13      29.99F

$$

COASTAL OBSERVATIONS
LAKE AND NEARSHORE STATIONS

STATION/POSITION TIME  TEMP    WIND        PRES    WAVE
                       AIR SEA DIR/SP/G            HT/PER
                 (UTC) (F)     (DEG/KT/KT) (MB)    (FT/S)
PASCAGOULA       0442   69     120/ 10/ 13 1015.1
WAVELAND YACHT   0442   68 67  150/ 13/ 15 1014.3
GRAND ISLE       0442   70 68  160/  8/ 14 1014.3
SOUTHWEST PASS   0448          140/  7/ 11   N/A
NEW CANAL        0442   62 65  280/ 12/ 24 1014.8
SHELL BEACH      0442   69 69  140/ 17/ 21 1014.2

OFFSHORE STATIONS

STATION/POSITION TIME  TEMP    WIND        PRES    WAVE
                       AIR SEA DIR/SP/G            HT/PER
                 (UTC) (F)     (DEG/KT/KT) (MB)    (FT/S)

$$




USA.gov is the U.S. government's official web portal to all federal, state and local government web resources and services.